FW6064 Weather Reports


time (UTC)temp
F
wind
direction
speed
knots
gust
knots
rain 1hr
in
rain 24hr
in
rain mn
in
humidity
%
barometer
mb
20260504044542 38 0 0.0 0.0 0.00 0.00 0.00 89 1021.0
20260504043052 39 0 0.0 0.0 0.00 0.00 0.00 89 1021.1
20260504041541 39 0 0.0 0.0 0.00 0.00 0.00 87 1021.0
20260504040041 40 0 0.0 0.0 0.00 0.00 0.00 86 1020.8
20260504034539 40 0 0.0 0.0 0.00 0.00 0.00 85 1020.8
20260504033040 41 0 0.0 0.0 0.00 0.00 0.00 85 1020.6
20260504031545 41 0 0.0 0.0 0.00 0.00 0.00 83 1020.5
20260504030047 42 0 0.0 0.0 0.00 0.00 0.00 82 1020.5
20260504024537 42 0 0.0 0.0 0.00 0.00 0.00 80 1020.4
20260504023038 43 0 0.0 0.0 0.00 0.00 0.00 77 1020.5
20260504021545 44 0 0.0 0.0 0.00 0.00 0.00 77 1020.3
20260504020053 45 0 0.0 0.0 0.00 0.00 0.00 72 1020.3
20260504014549 46 0 0.0 0.0 0.00 0.00 0.00 69 1020.3
20260504013042 47 0 0.0 0.0 0.00 0.00 0.00 66 1020.3
20260504011536 48 0 0.0 0.0 0.00 0.00 0.00 61 1020.1
20260504010044 49 0 0.0 0.0 0.00 0.00 0.00 55 1019.9
20260504004543 51 0 0.0 0.0 0.00 0.00 0.00 52 1019.8
20260504003046 53 0 0.0 0.0 0.00 0.00 0.00 47 1019.8
20260504001542 54 0 0.0 0.0 0.00 0.00 0.00 42 1019.6
20260504000045 56 0 0.0 0.0 0.00 0.00 0.00 40 1019.4
20260503234536 57 0 0.0 0.0 0.00 0.00 0.00 40 1019.3
20260503233042 58 0 0.0 0.0 0.00 0.00 0.00 39 1019.3
20260503231543 58 0 0.0 2.6 0.00 0.00 0.00 38 1019.0
20260503230049 59 0 0.0 4.3 0.00 0.00 0.00 37 1018.9
20260503224539 60 0 0.0 1.7 0.00 0.00 0.00 35 1019.3
20260503223038 60 0 0.0 3.5 0.00 0.00 0.00 33 1019.2
20260503221543 61 0 0.0 2.6 0.00 0.00 0.00 32 1019.1
20260503220043 61 0 0.0 7.0 0.00 0.00 0.00 32 1019.3
20260503214544 62 0 0.0 3.5 0.00 0.00 0.00 34 1019.2
20260503213040 62 0 0.0 0.0 0.00 0.00 0.00 34 1019.2
20260503211549 61 0 0.0 4.3 0.00 0.00 0.00 36 1019.1
20260503210044 62 59 0.0 6.1 0.00 0.00 0.00 35 1019.1
20260503204549 61 0 0.0 2.6 0.00 0.00 0.00 35 1019.2
20260503203052 61 0 0.0 4.3 0.00 0.00 0.00 36 1019.4
20260503201539 61 0 0.0 0.9 0.00 0.00 0.00 34 1019.3
20260503200052 60 0 0.0 6.1 0.00 0.00 0.00 33 1019.6
20260503194545 60 0 0.0 6.1 0.00 0.00 0.00 38 1019.8
20260503193055 60 0 0.0 0.0 0.00 0.00 0.00 36 1020.0
20260503191548 59 0 0.0 7.0 0.00 0.00 0.00 36 1020.2
20260503190047 57 214 0.9 10.4 0.00 0.00 0.00 35 1020.3
20260503184549 58 0 0.0 1.7 0.00 0.00 0.00 41 1020.5
20260503183045 58 0 0.9 6.1 0.00 0.00 0.00 36 1020.6
20260503181607 58 0 0.0 7.8 0.00 0.00 0.00 39 1020.6
20260503180056 58 0 0.0 0.9 0.00 0.00 0.00 40 1020.9
20260503174555 56 0 0.0 11.3 0.00 0.00 0.00 42 1021.0
20260503173055 56 0 0.0 3.5 0.00 0.00 0.00 41 1020.9
20260503171543 55 0 0.0 4.3 0.00 0.00 0.00 43 1021.0
20260503081544 38 0 0.0 0.0 0.00 0.00 0.00 83 1019.4
20260503071541 39 0 0.0 0.0 0.00 0.00 0.00 82 1018.9